Temp
-4 -4 -4 -4 -4 -4 -4 -3 -3 -4 -3 -3 -3 -3 -3 -3 -3 -3 -3 -3 -3 -3 -4 -4 -5 -5 -6 -6 -7 -7 -7 -8 -6 -6 -5 -4 -4 -5 -5 -5 -5 -6 -6 -6 -6
-4 -4 -4 -4 -4 -4 -4 -4 -4 -4 -4 -3 -3 -3 -3 -3 -3 -3 -3 -3 -3 -4 -4 -5 -5 -5 -6 -6 -7 -7 -7 -8 -7 -6 -5 -5 -5 -5 -5 -6 -6 -6 -6 -6 -6
-5 -5 -5 -4 -4 -4 -4 -4 -4 -4 -4 -4 -4 -3 -3 -3 -3 -3 -3 -3 -3 -3 -4 -4 -4 -4 -5 -6 -6 -7 -7 -8 -7 -7 -6 -5 -5 -5 -5 -6 -6 -6 -6 -6 -6
-5 -5 -5 -5 -5 -4 -4 -4 -4 -5 -4 -4 -4 -4 -3 -3 -3 -4 -4 -3 -3 -3 -3 -4 -4 -4 -5 -5 -6 -7 -7 -7 -7 -7 -6 -6 -6 -5 -5 -6 -6 -6 -7 -7 -7
-5 -5 -5 -5 -5 -5 -5 -5 -4 -4 -4 -4 -5 -4 -4 -3 -4 -3 -3 -3 -3 -3 -3 -4 -5 -5 -5 -6 -6 -7 -7 -6 -7 -7 -7 -6 -6 -6 -5 -6 -6 -6 -6 -7 -7
-5 -5 -5 -5 -5 -5 -5 -5 -4 -4 -4 -4 -4 -5 -4 -3 -4 -4 -4 -4 -4 -4 -3 -3 -4 -5 -5 -6 -6 -6 -7 -6 -6 -7 -7 -7 -7 -7 -6 -5 -6 -6 -6 -7 -7
-5 -5 -5 -4 -5 -5 -5 -5 -5 -4 -4 -4 -4 -4 -4 -3 -4 -4 -4 -3 -4 -3 -4 -4 -4 -4 -5 -5 -6 -6 -7 -6 -7 -7 -7 -7 -8 -8 -7 -7 -7 -6 -6 -6 -7
-5 -5 -4 -4 -4 -5 -5 -5 -5 -5 -4 -4 -4 -4 -5 -3 -4 -4 -4 -4 -4 -4 -3 -3 -3 -4 -4 -4 -5 -5 -6 -6 -7 -7 -8 -7 -9 -8 -8 -7 -7 -7 -6 -6 -6
-5 -5 -4 -4 -4 -4 -4 -5 -5 -5 -5 -4 -4 -4 -4 -4 -4 -4 -4 -4 -4 -4 -4 -3 -4 -4 -4 -4 -5 -5 -5 -6 -7 -7 -7 -7 -8 -8 -8 -8 -8 -8 -7 -6 -6
-5 -5 -5 -4 -4 -4 -4 -4 -4 -5 -5 -5 -5 -4 -4 -4 -4 -4 -5 -4 -4 -4 -4 -4 -4 -4 -4 -4 -3 -4 -5 -5 -6 -6 -7 -8 -8 -8 -8 -7 -8 -7 -7 -7 -6
-6 -6 -6 -5 -5 -5 -4 -4 -4 -4 -5 -5 -5 -4 -4 -4 -4 -4 -4 -4 -4 -4 -4 -4 -4 -4 -5 -4 -5 -5 -5 -5 -6 -6 -7 -7 -8 -8 -8 -7 -8 -7 -7 -7 -6
-6 -6 -6 -6 -6 -5 -5 -5 -4 -4 -4 -4 -5 -5 -4 -4 -5 -4 -4 -4 -4 -4 -5 -4 -4 -5 -5 -5 -5 -5 -6 -6 -7 -6 -6 -7 -8 -8 -8 -7 -7 -7 -6 -6 -6
-6 -6 -7 -6 -6 -6 -5 -5 -5 -4 -4 -5 -4 -5 -5 -4 -5 -5 -4 -4 -4 -4 -4 -4 -5 -5 -5 -4 -5 -5 -5 -6 -6 -7 -6 -7 -7 -7 -7 -7 -7 -7 -7 -6 -5
-6 -6 -6 -7 -7 -6 -6 -6 -5 -5 -4 -4 -5 -4 -5 -4 -4 -4 -5 -4 -4 -3 -4 -4 -4 -4 -4 -4 -5 -5 -6 -6 -6 -6 -6 -6 -6 -8 -8 -8 -7 -7 -7 -6 -6
-6 -6 -6 -6 -6 -6 -7 -6 -6 -6 -6 -4 -4 -4 -5 -4 -4 -4 -5 -4 -4 -4 -4 -3 -4 -5 -4 -5 -5 -5 -6 -6 -7 -7 -7 -6 -6 -7 -8 -7 -7 -7 -7 -6 -6
-7 -6 -6 -6 -7 -7 -7 -7 -7 -7 -6 -5 -5 -5 -5 -5 -4 -4 -5 -4 -5 -4 -4 -4 -4 -4 -5 -5 -4 -5 -5 -6 -7 -7 -7 -5 -5 -5 -6 -6 -7 -7 -7 -6 -6
-11 -10 -9 -8 -7 -8 -7 -7 -8 -8 -7 -7 -6 -6 -6 -6 -5 -5 -5 -4 -4 -4 -3 -4 -3 -4 -4 -4 -4 -4 -4 -5 -6 -5 -3 -5 -4 -3 -6 -6 -6 -7 -7 -6 -6
-18 -18 -17 -16 -14 -12 -11 -9 -8 -8 -8 -6 -6 -6 -7 -7 -6 -5 -5 -5 -4 -4 -5 -4 -4 -4 -3 -3 -3 -3 -3 -3 -3 -3 -4 -5 -3 -2 -5 -5 -6 -7 -7 -7 -6
-19 -20 -20 -21 -21 -20 -18 -15 -14 -11 -7 -8 -8 -8 -8 -8 -8 -6 -6 -6 -5 -5 -5 -4 -4 -4 -4 -4 -4 -3 -3 -4 -4 -4 -3 -5 -3 -4 -4 -5 -5 -6 -6 -6 -6
-19 -20 -21 -22 -23 -23 -22 -22 -20 -16 -12 -11 -12 -10 -9 -9 -9 -8 -8 -6 -5 -6 -5 -4 -4 -4 -5 -5 -5 -4 -5 -5 -4 -4 -4 -3 -3 -3 -4 -5 -5 -6 -5 -5 -5
-19 -21 -22 -23 -23 -24 -24 -24 -23 -21 -17 -15 -14 -12 -12 -10 -10 -9 -8 -7 -7 -6 -5 -5 -5 -5 -4 -4 -4 -4 -4 -4 -4 -4 -4 -3 -3 -3 -4 -5 -5 -5 -6 -5 -5
-20 -21 -22 -24 -24 -24 -24 -24 -24 -23 -21 -18 -16 -15 -13 -12 -12 -11 -9 -8 -7 -6 -5 -5 -5 -5 -4 -4 -5 -5 -4 -4 -4 -3 -3 -2 -4 -3 -4 -4 -5 -5 -5 -6 -6
-20 -22 -22 -23 -24 -25 -25 -25 -25 -24 -23 -21 -19 -17 -16 -15 -13 -12 -11 -10 -8 -7 -7 -6 -5 -6 -5 -5 -5 -5 -4 -4 -4 -4 -3 -3 -3 -2 -4 -4 -5 -5 -5 -6 -5
-21 -22 -23 -23 -24 -25 -26 -26 -26 -25 -24 -23 -22 -19 -18 -17 -16 -13 -12 -11 -10 -8 -8 -7 -7 -6 -6 -6 -6 -5 -4 -4 -4 -3 -3 -2 -3 -2 -3 -4 -4 -5 -5 -5 -6
-21 -22 -23 -23 -24 -25 -26 -26 -26 -26 -25 -24 -24 -22 -19 -18 -18 -16 -14 -12 -11 -9 -9 -8 -8 -7 -7 -6 -5 -5 -5 -4 -3 -3 -3 -3 -2 -3 -3 -4 -5 -4 -5 -5 -6
-21 -22 -23 -23 -24 -25 -26 -26 -26 -26 -26 -26 -24 -24 -23 -20 -19 -18 -15 -13 -12 -11 -10 -9 -9 -7 -7 -7 -6 -5 -5 -4 -4 -4 -4 -3 -3 -3 -3 -3 -4 -5 -4 -5 -5
-21 -21 -22 -23 -24 -25 -26 -26 -26 -26 -26 -26 -25 -24 -24 -23 -20 -19 -17 -16 -13 -12 -11 -10 -9 -8 -8 -8 -7 -6 -5 -4 -5 -4 -4 -4 -4 -4 -4 -4 -4 -4 -5 -5 -5
Height
5882 5881 5880 5878 5877 5876 5875 5875 5873 5872 5872 5872 5871 5871 5871 5871 5872 5873 5874 5877 5876 5879 5882 5884 5886 5888 5890 5890 5890 5890 5892 5896 5895 5895 5895 5893 5893 5894 5894 5896 5896 5897 5897 5899 5899
5879 5878 5877 5876 5875 5874 5873 5872 5871 5870 5869 5869 5869 5869 5868 5869 5869 5870 5873 5874 5874 5875 5878 5881 5883 5885 5889 5890 5890 5890 5890 5893 5894 5894 5894 5894 5893 5893 5894 5894 5896 5896 5897 5898 5899
5875 5874 5872 5872 5871 5870 5870 5869 5868 5867 5866 5866 5865 5865 5865 5866 5867 5866 5868 5870 5872 5873 5874 5877 5879 5881 5884 5888 5889 5888 5889 5891 5893 5893 5894 5894 5894 5892 5892 5893 5894 5895 5896 5897 5899
5870 5869 5868 5867 5866 5866 5866 5866 5864 5863 5863 5863 5862 5861 5862 5863 5865 5864 5863 5865 5868 5871 5873 5875 5877 5879 5882 5886 5887 5888 5888 5889 5890 5892 5894 5894 5893 5892 5892 5892 5892 5893 5894 5896 5897
5864 5863 5863 5862 5861 5861 5861 5860 5859 5859 5859 5859 5859 5857 5858 5859 5861 5859 5859 5861 5863 5866 5869 5871 5874 5876 5879 5882 5885 5886 5887 5889 5890 5892 5893 5893 5893 5893 5892 5891 5892 5892 5893 5894 5896
5860 5858 5858 5857 5856 5856 5855 5854 5853 5854 5854 5854 5854 5854 5854 5855 5856 5856 5856 5856 5858 5861 5864 5867 5870 5871 5873 5876 5880 5882 5884 5888 5890 5891 5892 5892 5893 5894 5892 5891 5891 5891 5891 5892 5894
5853 5852 5851 5850 5850 5851 5850 5848 5847 5847 5848 5848 5849 5849 5849 5850 5852 5852 5853 5854 5854 5856 5858 5861 5864 5868 5871 5873 5875 5879 5882 5886 5887 5889 5891 5892 5893 5893 5893 5892 5891 5890 5890 5891 5892
5846 5844 5843 5843 5842 5842 5842 5842 5842 5841 5841 5843 5843 5844 5844 5843 5847 5848 5848 5850 5850 5852 5853 5856 5860 5863 5866 5869 5874 5875 5878 5883 5887 5888 5890 5892 5895 5892 5891 5891 5891 5891 5890 5890 5892
5837 5835 5833 5834 5833 5833 5833 5834 5834 5834 5834 5836 5837 5837 5838 5838 5841 5843 5844 5845 5846 5848 5849 5852 5855 5860 5862 5865 5868 5871 5876 5881 5884 5886 5888 5889 5890 5891 5891 5891 5890 5890 5889 5889 5891
5827 5825 5822 5822 5823 5823 5822 5824 5825 5826 5826 5828 5829 5831 5833 5834 5835 5837 5838 5840 5842 5843 5846 5848 5851 5854 5857 5859 5862 5868 5871 5877 5881 5884 5886 5887 5888 5889 5890 5890 5889 5889 5888 5888 5890
5816 5814 5812 5809 5810 5811 5811 5812 5815 5816 5816 5818 5821 5821 5825 5827 5828 5830 5832 5834 5837 5840 5843 5844 5846 5849 5855 5857 5862 5864 5868 5873 5877 5879 5883 5885 5884 5886 5888 5889 5888 5889 5888 5887 5889
5804 5802 5799 5797 5795 5796 5797 5797 5799 5802 5807 5807 5809 5813 5815 5818 5820 5822 5824 5828 5831 5836 5836 5840 5844 5844 5845 5848 5854 5860 5864 5870 5872 5874 5879 5881 5882 5883 5884 5886 5886 5887 5887 5886 5888
5790 5787 5784 5782 5781 5780 5781 5783 5783 5786 5790 5798 5798 5802 5804 5808 5811 5815 5817 5821 5824 5826 5832 5835 5838 5837 5840 5843 5846 5852 5858 5863 5868 5869 5874 5877 5878 5879 5882 5883 5883 5885 5886 5887 5886
5774 5771 5768 5766 5766 5763 5763 5766 5767 5770 5772 5780 5784 5787 5793 5796 5800 5805 5809 5812 5815 5820 5825 5826 5830 5833 5836 5839 5843 5847 5853 5856 5858 5861 5868 5871 5875 5877 5879 5880 5880 5882 5884 5887 5888
5751 5749 5745 5744 5744 5745 5745 5746 5748 5754 5754 5757 5767 5775 5779 5783 5790 5794 5800 5799 5806 5813 5815 5825 5826 5831 5833 5838 5838 5845 5845 5849 5854 5855 5859 5862 5866 5871 5872 5875 5878 5880 5883 5885 5887
5718 5718 5715 5715 5717 5720 5723 5726 5728 5733 5733 5739 5746 5755 5763 5769 5773 5779 5787 5791 5796 5800 5804 5813 5817 5817 5827 5827 5831 5835 5837 5842 5846 5849 5844 5855 5860 5865 5866 5873 5876 5878 5879 5882 5885
5689 5685 5680 5678 5681 5685 5693 5700 5705 5707 5715 5719 5726 5734 5744 5752 5758 5764 5772 5778 5783 5790 5795 5803 5807 5813 5816 5818 5823 5826 5829 5833 5836 5836 5837 5850 5851 5861 5859 5867 5872 5874 5876 5878 5882
5674 5664 5653 5647 5645 5648 5655 5667 5674 5680 5684 5697 5708 5717 5726 5733 5743 5748 5755 5763 5770 5779 5783 5792 5797 5804 5810 5814 5818 5821 5825 5826 5829 5834 5838 5840 5842 5852 5858 5862 5866 5869 5872 5874 5876
5665 5652 5641 5630 5626 5624 5627 5632 5642 5640 5660 5678 5686 5694 5703 5713 5724 5734 5741 5749 5757 5766 5773 5778 5787 5793 5800 5807 5811 5815 5814 5830 5828 5830 5833 5837 5841 5845 5851 5856 5860 5864 5867 5870 5874
5657 5643 5631 5619 5614 5611 5611 5610 5609 5619 5633 5647 5660 5669 5678 5689 5704 5714 5722 5731 5741 5748 5755 5766 5774 5780 5789 5796 5800 5805 5816 5814 5818 5821 5827 5833 5837 5840 5846 5850 5856 5859 5864 5868 5871
5647 5633 5621 5609 5606 5602 5600 5597 5597 5598 5607 5617 5629 5642 5655 5670 5682 5693 5700 5715 5722 5729 5742 5752 5762 5768 5774 5783 5792 5796 5800 5806 5813 5818 5823 5829 5834 5837 5841 5845 5851 5856 5860 5865 5868
5639 5626 5614 5602 5598 5594 5590 5586 5585 5584 5588 5599 5608 5621 5633 5647 5661 5672 5682 5693 5705 5718 5732 5740 5748 5754 5766 5775 5781 5788 5795 5802 5804 5813 5817 5823 5830 5831 5837 5840 5843 5850 5855 5860 5865
5632 5621 5609 5598 5591 5586 5581 5577 5575 5575 5578 5582 5588 5595 5611 5628 5643 5652 5663 5678 5691 5702 5712 5723 5735 5743 5749 5759 5764 5774 5784 5789 5796 5806 5809 5815 5823 5826 5831 5835 5838 5842 5846 5852 5859
5624 5613 5601 5593 5585 5579 5575 5570 5568 5567 5568 5570 5574 5582 5593 5611 5621 5632 5645 5660 5674 5685 5700 5711 5721 5731 5742 5754 5757 5763 5771 5777 5787 5795 5803 5808 5815 5822 5827 5831 5835 5838 5842 5846 5851
5619 5608 5596 5589 5580 5573 5569 5565 5564 5562 5561 5562 5565 5571 5580 5595 5603 5615 5625 5642 5656 5669 5682 5694 5707 5717 5725 5730 5741 5750 5760 5767 5776 5787 5793 5805 5810 5817 5822 5826 5829 5833 5837 5841 5845
5613 5604 5595 5585 5577 5569 5565 5562 5560 5558 5557 5558 5560 5563 5569 5577 5587 5595 5609 5624 5635 5652 5664 5678 5689 5701 5712 5722 5731 5738 5747 5757 5767 5777 5785 5796 5801 5808 5814 5820 5824 5828 5831 5835 5838
5610 5601 5591 5582 5574 5566 5561 5558 5555 5555 5554 5553 5553 5557 5561 5565 5573 5586 5598 5610 5623 5636 5649 5663 5673 5689 5701 5710 5717 5724 5738 5748 5756 5765 5775 5786 5794 5802 5807 5815 5820 5824 5827 5830 5832
Wind_Speed
17 17 17 17 16 15 14 13 13 13 11 11 11 10 10 10 12 15 14 8 3 14 14 14 13 17 17 12 22 18 10 7 9 4 7 8 10 15 15 13 14 14 14 14 11
21 21 20 20 19 18 18 17 16 16 15 14 12 12 12 9 11 15 15 15 13 13 18 18 17 16 21 17 20 22 19 14 9 6 8 11 13 13 15 16 15 16 16 14 12
22 22 22 22 22 22 21 20 19 19 18 17 17 16 14 12 10 13 15 18 15 17 22 24 23 20 19 20 20 23 24 18 14 13 8 8 10 12 14 18 17 17 16 16 15
25 24 24 24 25 24 24 23 23 22 21 18 18 18 17 14 11 10 15 16 19 18 19 20 24 21 17 18 22 24 24 21 17 13 9 10 11 14 16 17 18 18 19 17 17
25 26 25 25 25 26 26 26 26 25 23 21 20 20 18 16 7 12 14 15 17 21 18 17 18 22 21 20 23 24 25 22 20 16 12 9 12 14 15 17 15 15 16 16 16
26 25 25 25 26 25 26 27 28 26 24 23 23 22 21 18 11 13 11 14 16 20 23 17 19 22 28 25 25 27 28 23 17 20 16 12 9 9 14 16 15 14 15 17 15
30 29 27 27 28 27 26 28 29 28 26 24 25 23 24 20 14 17 14 13 15 15 24 25 23 25 26 31 28 29 28 27 20 23 19 13 10 9 10 10 10 12 14 15 15
33 34 33 32 31 29 28 28 28 28 28 26 27 26 25 26 20 19 18 14 14 16 19 26 26 27 26 26 29 29 31 29 22 22 17 14 8 9 8 6 6 7 13 16 16
37 37 37 36 36 35 33 31 30 30 29 28 28 28 29 30 24 20 20 20 18 16 15 19 27 24 24 24 28 30 27 32 31 23 20 17 15 15 12 9 6 9 12 17 17
40 41 43 43 40 39 39 37 35 33 32 30 29 30 29 30 29 24 25 21 20 20 17 14 19 26 25 24 22 26 28 32 35 31 25 22 20 17 16 13 11 12 15 17 18
40 42 45 47 47 45 44 43 42 39 37 35 31 33 30 30 32 30 29 26 23 19 14 15 17 14 21 24 22 23 27 26 32 33 27 27 25 19 18 19 16 15 17 18 19
45 43 44 45 49 50 50 49 48 46 41 41 39 34 35 34 35 33 33 29 25 18 21 18 8 18 25 30 26 24 22 27 31 36 29 26 31 26 24 22 21 18 18 20 18
50 50 47 49 49 49 51 53 54 52 50 44 44 40 40 40 38 36 35 32 31 29 22 19 20 22 25 30 33 31 27 31 31 34 33 28 28 32 29 26 24 19 19 21 22
60 59 59 56 54 55 54 51 54 57 58 54 48 49 45 45 44 40 38 38 36 31 27 29 28 25 23 25 29 32 30 32 40 38 34 34 27 31 29 25 24 21 18 18 20
70 69 68 65 62 59 59 58 56 54 57 62 58 52 49 50 47 46 41 45 41 35 35 25 24 23 24 16 24 27 35 36 35 42 39 37 36 35 38 34 24 21 19 20 21
86 83 81 76 70 68 65 62 61 60 62 61 60 57 51 52 54 51 46 46 43 40 41 35 34 35 26 30 27 30 38 38 38 38 48 35 34 40 39 36 28 23 21 23 23
84 86 87 86 82 75 69 70 65 66 63 63 64 62 55 52 54 53 53 51 50 47 43 38 40 37 36 36 34 34 39 43 45 44 40 33 36 31 44 37 36 28 26 24 25
61 61 60 60 63 67 63 66 70 69 72 68 64 61 57 56 52 53 52 55 54 49 49 43 42 41 38 36 33 35 35 40 43 39 39 39 29 20 26 35 37 35 32 28 30
63 59 60 48 45 42 42 54 57 73 76 70 67 64 61 58 54 55 52 53 53 54 53 51 46 43 42 38 37 32 38 27 37 38 35 30 23 26 24 32 40 37 31 29 29
63 58 54 42 37 34 30 33 47 58 67 68 63 68 68 65 59 57 57 59 55 55 57 57 53 51 47 42 43 39 30 38 39 40 33 27 23 16 14 30 36 38 31 25 30
56 53 52 38 31 30 27 28 33 42 55 63 66 70 68 66 63 61 63 62 61 61 60 57 55 56 54 51 45 44 43 40 37 35 31 25 19 12 16 27 33 33 35 29 30
50 48 51 39 32 29 27 23 29 34 41 52 63 66 70 68 65 64 65 66 66 64 58 58 58 59 57 53 52 48 44 40 43 36 31 23 17 19 19 25 37 34 31 29 30
47 44 45 42 33 30 27 21 22 27 35 42 53 66 68 69 68 69 70 66 66 66 64 64 60 59 60 58 59 56 51 50 47 41 37 34 29 23 14 24 33 38 38 35 31
45 46 45 42 34 30 23 19 17 20 24 35 42 55 65 67 69 73 72 71 70 70 66 63 63 61 57 48 53 56 56 56 50 47 43 37 32 23 17 20 30 39 42 40 38
43 45 44 43 37 30 24 16 13 13 14 18 25 38 53 63 69 71 76 75 75 73 71 69 66 65 64 65 61 58 58 56 53 48 47 40 35 31 24 22 29 36 43 45 46
42 42 42 43 38 26 21 17 13 11 9 7 18 20 22 49 67 70 77 78 79 77 76 74 73 71 67 64 63 62 61 58 54 50 49 42 39 33 30 29 31 31 40 45 46
39 42 40 42 39 32 20 16 13 11 11 8 22 28 22 27 55 70 74 72 80 80 79 77 76 73 70 67 66 68 62 60 59 55 51 45 43 33 31 26 27 25 35 44 46
Wind_Direction
288 291 292 292 291 290 291 291 294 296 291 289 287 288 279 269 242 233 220 160 161 221 213 203 193 193 186 168 172 170 153 162 178 171 183 177 188 187 183 182 177 172 181 179 173
282 282 282 282 281 281 282 285 288 287 287 284 279 277 272 270 256 241 236 223 227 211 200 208 204 200 193 187 190 196 197 205 197 211 202 193 185 184 177 178 183 180 183 187 181
284 283 282 282 278 275 273 275 280 283 281 279 279 275 273 265 267 258 240 231 217 213 208 210 208 204 198 193 194 201 206 204 220 229 215 214 202 181 177 175 180 189 192 187 185
289 286 283 282 280 278 275 273 273 273 274 273 272 273 271 268 263 270 251 234 221 215 217 215 213 210 205 191 194 196 196 199 205 209 224 205 205 196 180 179 184 186 191 192 185
294 289 286 283 281 279 277 274 270 271 271 268 267 269 268 263 246 250 250 241 226 215 217 212 213 214 205 198 197 207 204 203 209 221 215 214 209 207 199 182 183 185 183 187 194
293 288 285 283 281 280 279 276 273 271 269 266 262 264 265 256 251 246 228 232 225 218 214 211 209 210 204 203 197 202 208 201 207 209 210 205 198 209 207 191 185 178 181 182 186
290 287 285 283 280 277 275 275 272 270 266 262 261 259 260 255 246 244 234 241 230 224 215 211 208 212 212 208 203 200 203 205 202 194 200 198 181 195 197 192 185 185 179 181 175
285 284 283 282 280 278 274 270 269 267 263 260 259 257 255 258 246 240 239 224 227 225 224 216 212 214 213 220 213 209 203 198 196 193 193 194 204 206 196 200 203 199 194 181 180
280 280 278 276 276 275 273 270 267 264 263 256 254 254 252 255 255 243 240 230 231 231 228 223 215 223 223 216 215 218 207 195 193 182 191 195 192 201 202 200 218 182 202 182 179
283 279 277 273 271 270 270 267 264 263 260 259 252 249 246 249 251 242 239 236 232 233 226 221 218 219 218 220 224 217 214 200 202 209 200 192 204 205 220 219 228 197 185 179 181
295 289 284 277 271 266 265 265 263 259 259 255 252 249 242 243 243 242 234 240 230 233 229 217 217 214 223 226 223 220 218 208 203 209 196 200 212 222 225 229 232 204 183 177 187
298 298 291 283 278 272 265 261 260 258 253 254 252 246 246 241 240 239 235 235 240 236 229 218 175 197 201 208 214 218 214 206 208 208 206 207 208 220 219 229 233 208 191 181 184
287 286 282 283 282 278 271 265 259 255 255 248 250 247 245 242 241 238 238 233 236 232 225 215 199 214 209 207 207 205 203 203 212 213 213 207 213 220 224 233 227 207 204 193 182
291 287 282 279 272 273 273 268 262 257 254 249 245 246 240 243 240 239 239 238 232 230 232 222 212 217 219 215 213 205 207 211 211 219 217 222 212 215 213 222 228 208 208 205 193
291 288 283 278 273 272 265 263 264 259 257 251 245 242 242 241 241 238 238 237 235 235 231 225 232 225 227 219 218 204 210 213 217 222 223 226 224 213 217 216 224 215 221 215 197
298 293 288 283 277 270 265 259 254 255 255 251 250 246 241 236 238 237 233 235 234 233 231 226 220 220 208 211 209 205 211 211 216 222 228 224 227 205 222 216 222 220 224 215 206
304 298 293 287 280 274 262 256 251 247 247 247 246 245 242 237 234 234 231 230 233 233 233 226 222 222 216 216 211 208 209 209 215 224 241 232 234 199 215 214 219 222 225 222 213
324 322 309 293 282 272 264 251 246 243 240 241 244 245 243 238 233 231 228 228 226 229 235 233 231 221 222 223 226 220 218 218 221 230 238 238 242 227 215 216 209 216 219 222 214
327 330 331 310 297 287 267 250 240 233 235 234 235 237 238 237 233 230 227 225 223 226 226 231 226 227 224 225 227 225 224 227 227 235 236 243 247 250 230 207 210 214 217 220 217
330 332 335 320 309 302 290 260 247 235 227 225 226 228 230 230 229 226 224 224 222 217 221 226 224 227 223 220 222 227 224 223 222 229 234 240 246 250 208 202 210 214 220 228 222
336 339 343 328 315 309 298 273 260 246 228 219 216 220 223 226 225 222 221 221 218 216 217 218 220 226 222 219 221 222 222 225 224 227 236 240 248 229 197 193 207 213 226 229 221
339 345 350 338 323 318 313 272 253 249 237 222 218 215 216 217 217 215 219 220 220 221 219 218 221 223 224 222 224 226 228 235 238 233 233 236 235 183 185 196 197 211 219 208 206
342 348 349 352 333 323 318 297 258 246 242 231 222 217 211 209 211 213 217 216 218 220 215 216 217 218 223 221 223 224 225 229 229 228 228 228 228 206 210 194 202 204 203 202 205
340 347 350 357 346 333 325 300 275 259 245 237 233 223 212 206 207 211 210 212 213 217 217 217 218 218 224 227 228 225 225 227 228 229 230 227 226 209 202 188 199 208 212 209 207
346 352 350 352 351 339 332 317 284 273 266 247 238 231 222 210 205 207 210 207 210 213 216 216 216 218 220 221 222 224 225 229 229 228 229 230 232 230 218 190 191 205 213 214 215
347 352 354 352 351 350 337 333 289 274 278 255 199 184 218 220 209 207 207 207 209 211 213 216 216 218 219 223 227 226 224 228 229 229 230 227 231 225 224 214 203 204 210 217 220
348 352 352 352 345 0 343 336 306 287 274 270 209 198 191 199 216 211 208 208 210 210 212 214 216 216 219 222 224 226 227 229 230 229 230 227 232 239 235 227 229 219 213 217 219